Pontiac, MI

10:15 AM EDT on June 18, 2018 (GMT -0400)
Oakland County International

Weather History for KPTK - May, 2018

Change the Weather History Date:

Friday, May 25, 2018

  Actual Average Record
Temperature  
Mean Temperature 70 °F -  
Max Temperature 86 °F 66 °F 86 °F (2018)
Min Temperature 55 °F 46 °F 35 °F (2013)
Cooling Degree Days 6    
Growing Degree Days 20 (Base 50)    
Moisture  
Dew Point 55 °F    
Average Humidity 55    
Maximum Humidity 87    
Minimum Humidity 38    
Precipitation  
Precipitation 0.00 in - - ()
Sea Level Pressure  
Sea Level Pressure 29.90 in    
Wind  
Wind Speed 3 mph (SW)    
Max Wind Speed 12 mph    
Max Gust Speed 18 mph    
Visibility 10 miles    
Events      
Averages and records for this station are not official NWS values.
T = Trace of Precipitation, MM = Missing Value Source: NWS Daily Summary

Daily Weather History Graph

Daily Weather History Graph

Search for Another Location

Airport or City:

Astronomy

May. 25, 2018 Rise Set
Actual Time 6:02 AM EDT 8:59 PM EDT
Civil Twilight 5:29 AM EDT 9:32 PM EDT
Nautical Twilight 4:46 AM EDT 10:15 PM EDT
Astronomical Twilight 3:56 AM EDT 11:05 PM EDT
Moon 4:59 PM EDT (5/25) 4:15 AM EDT (5/25)
Length of Visible Light 16h 03m
Length of Day
14h 56m
Waxing Gibbous, 85% of the Moon is Illuminated
May 25
Waxing Gibbous
May 29
Full
Jun 6
Last Quarter
Jun 13
New
Jun 20
First Quarter

Hourly Weather History & Observations

Time (EDT) Temp. Heat Index Dew Point Humidity Pressure Visibility Wind Dir Wind Speed Gust Speed Precip Events Conditions
12:53 AM 66.0 °F - 51.1 °F 59% 30.04 in 10.0 mi Calm Calm - N/A   Clear
1:53 AM 60.1 °F - 53.1 °F 78% 30.05 in 10.0 mi Calm Calm - N/A   Clear
2:53 AM 60.1 °F - 52.0 °F 75% 30.03 in 10.0 mi Calm Calm - N/A   Clear
3:53 AM 59.0 °F - 53.1 °F 81% 30.02 in 10.0 mi Calm Calm - N/A   Clear
4:53 AM 57.0 °F - 52.0 °F 83% 30.01 in 10.0 mi Calm Calm - N/A   Clear
5:53 AM 55.9 °F - 52.0 °F 87% 30.00 in 10.0 mi Calm Calm - N/A   Partly Cloudy
6:53 AM 57.0 °F - 52.0 °F 83% 29.99 in 10.0 mi Calm Calm - N/A   Scattered Clouds
7:53 AM 64.9 °F - 55.9 °F 73% 29.97 in 10.0 mi Calm Calm - N/A   Scattered Clouds
8:53 AM 71.1 °F - 54.0 °F 55% 29.96 in 10.0 mi WSW 6.9 mph - N/A   Partly Cloudy
9:53 AM 75.9 °F - 54.0 °F 46% 29.95 in 10.0 mi SW 9.2 mph - N/A   Scattered Clouds
10:53 AM 79.0 °F - 54.0 °F 42% 29.94 in 10.0 mi West 11.5 mph - N/A   Scattered Clouds
11:53 AM 81.0 °F 80.7 °F 55.0 °F 41% 29.93 in 10.0 mi WSW 9.2 mph - N/A   Partly Cloudy
12:53 PM 82.0 °F 81.4 °F 55.0 °F 39% 29.90 in 10.0 mi WSW 9.2 mph - N/A   Partly Cloudy
1:53 PM 84.0 °F 83.3 °F 57.0 °F 40% 29.89 in 10.0 mi Variable 6.9 mph 16.1 mph N/A   Mostly Cloudy
2:53 PM 84.9 °F 84.2 °F 57.9 °F 40% 29.87 in 10.0 mi Variable 5.8 mph - N/A   Mostly Cloudy
3:53 PM 84.9 °F 84.2 °F 57.9 °F 40% 29.85 in 10.0 mi SW 6.9 mph 17.3 mph N/A   Scattered Clouds
4:53 PM 86.0 °F 85.0 °F 57.9 °F 38% 29.81 in 10.0 mi South 6.9 mph - N/A   Partly Cloudy
5:53 PM 84.9 °F 83.9 °F 57.0 °F 38% 29.80 in 10.0 mi SSW 9.2 mph - N/A   Partly Cloudy
6:53 PM 84.0 °F 83.3 °F 57.0 °F 40% 29.79 in 10.0 mi SSW 6.9 mph 18.4 mph N/A   Scattered Clouds
7:53 PM 82.0 °F 81.6 °F 55.9 °F 41% 29.78 in 10.0 mi South 6.9 mph - N/A   Scattered Clouds
8:53 PM 79.0 °F - 57.0 °F 47% 29.78 in 10.0 mi South 5.8 mph - N/A   Scattered Clouds
9:53 PM 77.0 °F - 57.0 °F 50% 29.78 in 10.0 mi SSW 4.6 mph - N/A   Scattered Clouds
10:53 PM 75.0 °F - 55.9 °F 51% 29.78 in 10.0 mi Calm Calm - N/A   Partly Cloudy
11:53 PM 71.1 °F - 57.0 °F 61% 29.78 in 10.0 mi Calm Calm - N/A   Partly Cloudy